Location: Krakow
(50.0830°N, 19.9170°E)
Time: 07:19:19
(UTC+02:00)

Tiros 1 despin weight - Pass Details

Date: 18 March 2026
Orbit: 555 x 592 km, 48.2° (Epoch: 18 April)

Event Time Altitude Azimuth Distance (km) Brightness Sun altitude
Rises 02:34:09 0° 188° (S) 2,810 - -29.6°
Maximum altitude 02:39:18 11° 137° (SE) 1,852 - -29.0°
Exits shadow 02:40:13 10° 125° (SE) 1,890 ? -28.9°
Drops below altitude 10° 02:40:27 10° 122° (ESE) 1,912 ? -28.9°
Sets 02:44:27 0° 86° (E) 2,810 ? -28.4°
